Seldovia, AK

9:09 AM AKDT on October 19, 2017 (GMT -0800)
Seldovia

Weather History for PASO - January, 2013

Change the Weather History Date:

Friday, January 11, 2013

  Actual Average (PAHO) Record (PAHO)
Temperature  
Mean Temperature 31 °F -  
Max Temperature 34 °F 26 °F 46 °F (2003)
Min Temperature 28 °F 13 °F -16 °F (1972)
Degree Days  
Heating Degree Days 34    
Moisture  
Dew Point 32 °F    
Average Humidity 95    
Maximum Humidity 100    
Minimum Humidity 92    
Precipitation  
Precipitation 0.12 in - - ()
Sea Level Pressure  
Sea Level Pressure 30.01 in    
Wind  
Wind Speed 1 mph (South)    
Max Wind Speed 6 mph    
Max Gust Speed -    
Visibility 5 miles    
Events Fog , Rain , Snow    
Averages and records for this station are not official NWS values.
T = Trace of Precipitation, MM = Missing Value Source: NWS Daily Summary

Daily Weather History Graph

Daily Weather History Graph

Search for Another Location

Airport or City:

Trip Planner

Search our weather history database for the weather conditions in past years. The results will help you decide how hot, cold, wet, or windy it might be!

Date:

Astronomy

Jan. 11, 2013 Rise Set
Actual Time 9:54 AM AKST 4:35 PM AKST
Civil Twilight 9:02 AM AKST 5:27 PM AKST
Nautical Twilight 8:08 AM AKST 6:21 PM AKST
Astronomical Twilight 7:19 AM AKST 7:11 PM AKST
Moon 9:20 AM AKST (1/11) 5:25 PM AKST (1/11)
Length of Visible Light 8h 25m
Length of Day
6h 40m
New Moon, 0% of the Moon is Illuminated
Jan 11
New Moon
Jan 18
First Quarter
Jan 26
Full
Feb 3
Last Quarter
Feb 9
New

Hourly Weather History & Observations

Time (AKST) Temp. Windchill Dew Point Humidity Pressure Visibility Wind Dir Wind Speed Gust Speed Precip Events Conditions
12:53 AM 28.9 °F - 28.0 °F 96% 29.84 in 10.0 mi Calm Calm - N/A   Overcast
1:53 AM 30.0 °F - 28.9 °F 96% 29.83 in 10.0 mi Calm Calm - N/A   Overcast
3:23 AM 32.0 °F - 30.2 °F 93% 29.80 in 10.0 mi Calm Calm - 0.00 in   Overcast
3:53 AM 33.1 °F - 32.0 °F 96% 29.80 in 10.0 mi Calm Calm - 0.01 in   Overcast
4:32 AM 33.8 °F - 32.0 °F 93% 29.80 in 6.0 mi Calm Calm - 0.01 in Rain Light Rain
4:53 AM 33.1 °F - 32.0 °F 96% 29.80 in 8.0 mi Calm Calm - 0.02 in Snow Light Snow
5:53 AM 33.1 °F - 32.0 °F 96% 29.81 in 8.0 mi Calm Calm - 0.04 in Rain Light Rain
6:53 AM 33.1 °F - 32.0 °F 96% 29.85 in 3.0 mi Calm Calm - 0.03 in Rain Light Rain
7:16 AM 33.8 °F - 32.0 °F 93% 29.85 in 4.0 mi Calm Calm - 0.01 in Rain Light Rain
7:53 AM 33.1 °F 28.7 °F 32.0 °F 96% 29.88 in 6.0 mi Variable 4.6 mph - 0.02 in Rain Light Rain
8:53 AM 33.1 °F 27.7 °F 30.9 °F 92% 29.94 in 6.0 mi North 5.8 mph - 0.00 in   Overcast
9:53 AM 33.1 °F 30.0 °F 30.9 °F 92% 29.97 in 10.0 mi South 3.5 mph - N/A   Overcast
10:53 AM 33.1 °F - 32.0 °F 96% 30.01 in 10.0 mi Calm Calm - N/A   Overcast
11:53 AM 34.0 °F - 32.0 °F 92% 30.03 in 10.0 mi Calm Calm - 0.00 in   Overcast
12:53 PM 33.1 °F - 32.0 °F 96% 30.05 in 6.0 mi Calm Calm - N/A   Overcast
1:53 PM 34.0 °F - 32.0 °F 92% 30.06 in 10.0 mi Calm Calm - N/A   Overcast
2:07 PM 33.8 °F - 32.0 °F 93% 30.07 in 10.0 mi Calm Calm - N/A   Overcast
2:53 PM 33.1 °F - 32.0 °F 96% 30.08 in 2.5 mi Calm Calm - N/A   Overcast
3:05 PM 33.8 °F - 33.8 °F 100% 30.08 in 3.0 mi Calm Calm - N/A   Overcast
3:17 PM 33.8 °F - 32.0 °F 93% 30.08 in 2.5 mi Calm Calm - N/A   Overcast
3:45 PM 33.8 °F - 32.0 °F 93% 30.07 in 1.8 mi Calm Calm - N/A   Overcast
3:53 PM 33.1 °F - 32.0 °F 96% 30.08 in 1.8 mi Calm Calm - N/A   Overcast
4:04 PM 33.8 °F - 32.0 °F 93% 30.08 in 2.5 mi Calm Calm - N/A   Overcast
4:37 PM 33.8 °F - 32.0 °F 93% 30.08 in 3.0 mi Calm Calm - N/A   Overcast
4:53 PM 33.1 °F 30.0 °F 32.0 °F 96% 30.08 in 7.0 mi South 3.5 mph - N/A   Overcast
5:03 PM 33.8 °F 30.8 °F 32.0 °F 93% 30.08 in 7.0 mi SSE 3.5 mph - N/A   Overcast
5:53 PM 33.1 °F - 30.9 °F 92% 30.10 in 2.5 mi Calm Calm - N/A   Overcast
6:05 PM 32.0 °F - 32.0 °F 100% 30.10 in 3.0 mi Calm Calm - N/A   Overcast
6:17 PM 33.8 °F - 32.0 °F 93% 30.10 in 2.0 mi Calm Calm - N/A   Overcast
6:34 PM 33.8 °F - 32.0 °F 93% 30.09 in 1.2 mi Calm Calm - N/A   Overcast
6:53 PM 32.0 °F - 30.9 °F 96% 30.10 in 1.5 mi Calm Calm - N/A   Overcast
7:01 PM 33.8 °F - 32.0 °F 93% 30.10 in 2.0 mi Calm Calm - N/A   Overcast
7:16 PM 32.0 °F 27.5 °F 32.0 °F 100% 30.10 in 0.5 mi SSW 4.6 mph - N/A Fog Fog
7:53 PM 33.1 °F - 30.9 °F 92% 30.10 in 0.5 mi Calm Calm - N/A Fog Fog
8:30 PM 33.8 °F - 32.0 °F 93% 30.10 in 1.0 mi Calm Calm - N/A   Mist
8:53 PM 32.0 °F - 30.9 °F 96% 30.10 in 1.8 mi Calm Calm - N/A   Overcast
9:14 PM 32.0 °F - 32.0 °F 100% 30.10 in 0.5 mi Calm Calm - N/A Fog Fog
9:53 PM 33.1 °F 30.0 °F 30.9 °F 92% 30.07 in 0.5 mi South 3.5 mph - N/A Fog Fog
10:53 PM 32.0 °F - 32.0 °F 100% 30.06 in 4.0 mi Calm Calm - N/A   Overcast
11:25 PM 32.0 °F - 32.0 °F 100% 30.06 in 2.0 mi Calm Calm - N/A   Overcast
11:32 PM 33.8 °F - 32.0 °F 93% 30.06 in 1.5 mi Calm Calm - N/A   Overcast
11:42 PM 33.8 °F - 32.0 °F 93% 30.07 in 3.0 mi Calm Calm - N/A   Overcast
11:53 PM 32.0 °F - 32.0 °F 100% 30.08 in 10.0 mi Calm Calm - N/A   Overcast